Location: Ferchesar
(52.6477°N, 12.4298°E)
Time: 16:03:01
(UTC+01:00)

Vanguard 1 - Pass Details

Date: 10 December 2021
Orbit: 652 x 3830 km, 34.2° (Epoch: 22 January)

Event Time Altitude Azimuth Distance (km) Brightness Sun altitude
Rises 01:13:29 0° 254° (WSW) 7,305 - -57.4°
Reaches altitude 10° 01:18:20 10° 249° (WSW) 6,554 - -57.0°
Maximum altitude 01:38:54 45° 187° (S) 4,597 - -55.1°
Exits shadow 01:48:50 32° 142° (SE) 4,963 13.4 -54.1°
Drops below altitude 10° 01:57:40 10° 123° (ESE) 6,025 14.1 -53.1°
Sets 02:01:54 0° 117° (ESE) 6,700 14.5 -52.6°
